Wind_Speed
23 25 26 25 23 22 21 21 21 21 21 28 26 33 34 35 39 40 43 46 47 48 48 48 49 49 50 51 51 51 51 51 51 50 50 48 46 45
25 26 25 23 22 22 22 23 24 26 27 27 32 34 36 38 41 43 45 47 49 51 53 51 52 53 53 53 53 54 54 54 54 54 53 52 50 48
26 23 22 23 23 23 24 25 27 28 31 32 35 36 38 41 43 45 47 49 52 52 55 53 54 54 54 54 53 54 55 55 55 54 54 54 54 52
23 22 22 23 24 25 27 28 29 32 34 36 38 41 43 45 47 48 49 49 51 51 51 50 49 50 49 48 49 50 50 51 53 53 54 55 55 55
23 23 23 24 26 27 29 30 32 33 36 41 45 46 48 49 49 49 48 47 45 44 43 43 44 44 46 47 49 50 50 50 51 50 51 52 53 55
23 23 24 26 28 29 30 32 34 37 41 44 46 47 49 50 51 49 47 44 42 40 40 40 41 43 42 45 47 48 49 49 50 51 51 51 51 52
24 25 26 28 29 31 33 35 38 41 43 45 45 47 47 47 48 48 46 44 41 39 42 39 39 40 40 42 41 43 43 44 46 48 49 49 51 52
26 27 29 30 31 33 35 38 39 41 42 43 44 44 43 43 44 43 42 40 41 38 42 41 41 41 39 37 36 37 38 39 40 43 45 47 48 48
28 29 31 32 33 35 37 38 39 40 42 42 43 41 41 40 40 38 38 38 38 38 41 42 39 40 38 37 34 32 32 35 38 40 42 43 43 43
30 31 31 34 35 37 38 38 38 39 40 40 40 40 38 36 35 36 36 37 36 37 39 41 38 40 38 37 35 35 35 34 35 38 41 41 41 41
31 32 34 35 36 37 36 37 37 36 37 37 35 33 34 34 34 35 33 36 37 38 36 39 38 40 38 38 37 33 33 33 33 33 35 38 40 41
32 33 34 34 33 34 35 35 34 33 32 32 32 32 32 32 32 32 34 35 36 38 35 37 38 40 40 38 38 34 33 33 33 31 30 32 35 37
31 33 32 31 31 31 31 31 32 32 31 32 32 31 31 31 31 32 33 34 35 37 35 37 39 39 40 41 39 36 34 33 33 31 29 29 31 34
30 29 29 29 29 29 29 30 31 31 32 33 32 32 32 31 31 31 32 33 34 36 34 34 37 38 40 39 40 38 34 32 32 31 30 29 30 31
28 27 27 27 27 28 29 29 30 31 32 32 32 32 32 32 32 32 32 32 33 32 31 30 33 35 37 39 40 39 38 33 31 31 28 26 25 28
26 26 25 25 26 28 29 30 31 31 32 32 33 33 33 33 32 32 32 31 31 30 29 30 31 33 35 36 38 36 33 34 31 30 27 22 20 25
25 25 25 26 27 29 30 31 32 32 33 33 34 34 34 33 31 32 32 31 30 29 30 30 31 32 32 34 34 33 31 31 28 28 26 21 17 20
24 24 25 27 29 30 31 31 32 33 33 33 33 32 31 30 29 29 29 29 29 29 30 30 32 34 33 31 31 31 26 28 26 24 24 21 17 18
23 24 26 29 30 31 31 32 32 32 32 32 31 29 29 28 28 28 28 28 28 29 29 28 31 33 35 33 28 25 26 24 24 22 21 17 15 14
24 26 29 30 31 31 32 32 31 31 30 29 28 27 26 27 27 26 27 27 28 29 29 28 29 31 32 33 30 24 21 23 21 21 19 15 12 12
26 28 29 29 30 30 30 30 30 29 28 27 26 25 25 25 25 25 26 26 28 29 30 28 28 29 30 30 29 25 18 18 18 18 16 14 12 10
26 27 28 28 29 29 28 28 27 26 26 26 25 24 24 24 25 25 26 27 28 29 29 29 28 27 27 27 26 25 21 15 16 16 15 14 14 13
26 26 26 26 27 27 27 27 26 25 24 25 24 23 24 24 24 26 27 27 28 29 28 28 27 25 25 25 25 24 21 18 16 16 17 18 16 15
Wind_Direction
279 288 293 295 294 294 295 295 296 295 295 297 296 298 299 298 297 299 299 299 299 297 295 295 293 291 290 290 289 288 287 286 284 283 281 280 277 276
281 288 290 290 291 292 294 295 296 298 298 297 299 299 300 300 300 300 299 298 297 296 295 295 294 293 292 290 289 288 286 284 283 282 281 279 277 275
282 284 285 287 289 292 294 296 297 299 301 301 301 302 303 303 302 302 301 300 298 298 296 296 295 294 294 293 291 288 286 285 283 281 280 278 276 274
277 280 283 286 289 293 296 298 300 302 303 304 305 305 306 305 304 303 301 300 299 299 299 299 299 298 298 298 295 293 291 287 285 282 279 276 274 271
276 279 282 286 291 294 296 299 302 303 305 307 307 308 307 307 305 304 303 303 303 302 303 304 304 303 301 298 296 294 293 291 288 285 282 279 275 271
276 279 284 290 293 296 298 300 302 303 306 306 307 307 307 307 306 307 305 305 305 305 304 304 304 304 303 300 298 295 291 288 285 283 281 279 277 274
278 282 288 291 293 296 298 300 302 305 306 305 306 306 307 307 307 307 307 307 308 309 307 309 308 307 308 306 306 302 299 295 290 286 282 279 276 273
280 286 289 292 294 297 298 301 303 304 304 305 306 307 307 306 304 304 306 307 309 314 311 317 315 312 313 314 313 311 307 302 297 293 288 284 280 276
287 290 292 294 296 299 300 302 303 304 305 306 306 305 303 303 302 302 305 309 314 316 313 316 316 315 317 319 319 314 306 303 299 295 291 290 289 284
288 290 294 296 299 300 301 302 304 306 306 306 305 303 302 301 302 304 308 309 313 314 314 316 315 314 317 320 319 317 314 308 300 297 296 295 292 288
290 293 295 298 300 300 301 305 307 307 305 303 301 301 302 303 304 305 307 310 312 313 315 313 315 314 317 319 318 319 314 309 302 297 295 294 293 291
293 294 295 297 299 302 305 306 305 303 303 303 303 302 302 302 302 305 308 309 312 314 316 313 313 313 316 318 318 323 317 312 308 303 294 290 291 294
294 295 296 299 301 303 304 304 303 304 305 304 303 303 302 302 302 303 305 308 311 314 316 313 313 314 313 316 319 323 318 317 310 306 298 290 290 294
294 295 299 300 301 303 304 303 305 306 307 307 306 305 303 302 301 302 303 305 307 310 314 312 312 312 312 315 318 320 320 317 315 311 306 299 296 296
293 295 296 298 302 304 304 306 308 309 308 307 306 304 302 301 300 301 302 303 305 310 312 311 309 309 310 312 317 320 320 315 316 314 311 309 309 308
292 294 296 301 304 306 307 308 307 307 307 306 304 302 300 298 300 301 302 302 304 308 311 311 310 311 312 314 315 320 317 313 315 317 318 312 315 324
295 297 301 303 305 306 306 307 307 306 303 301 301 301 300 300 301 302 304 304 304 307 310 312 311 311 313 315 317 317 315 309 311 317 318 311 316 332
295 298 301 303 305 307 308 307 304 301 301 301 301 300 299 299 301 303 304 303 303 306 310 313 313 313 314 319 321 322 316 308 310 314 318 308 315 329
295 299 303 305 306 306 304 303 303 304 303 303 303 303 302 303 304 306 305 303 303 306 311 315 313 313 316 321 323 329 313 307 308 312 317 307 319 319
296 300 302 302 303 304 305 306 306 305 304 303 303 303 303 304 306 307 307 307 307 308 311 317 317 314 316 319 323 327 315 307 310 317 319 310 304 314
296 298 299 302 305 306 306 306 306 305 305 305 304 304 305 306 308 308 309 310 310 311 313 316 316 315 316 316 319 324 318 304 304 317 323 315 301 299
295 300 304 305 305 305 305 305 305 305 305 304 304 305 306 307 309 310 311 311 311 313 315 316 316 316 317 317 320 323 320 306 290 296 312 316 312 297
302 304 305 305 305 305 305 306 306 307 305 304 305 305 307 309 309 309 311 311 311 312 314 316 318 318 319 317 319 322 319 313 300 290 286 292 299 301
Height
3116 3115 3114 3113 3112 3111 3110 3110 3109 3110 3110 3105 3105 3099 3098 3097 3093 3092 3087 3084 3080 3077 3075 3073 3069 3066 3064 3061 3058 3056 3053 3051 3049 3047 3046 3046 3046 3046
3109 3109 3107 3107 3106 3105 3105 3104 3103 3102 3101 3101 3097 3094 3092 3089 3085 3082 3078 3075 3071 3067 3062 3061 3056 3052 3049 3047 3044 3041 3039 3036 3034 3033 3031 3031 3031 3032
3102 3101 3100 3100 3099 3099 3098 3097 3096 3095 3092 3092 3089 3086 3084 3080 3076 3072 3068 3063 3058 3055 3049 3047 3043 3038 3035 3032 3029 3025 3023 3020 3019 3018 3016 3015 3014 3015
3096 3095 3094 3093 3093 3092 3091 3090 3089 3086 3084 3081 3079 3076 3073 3069 3065 3060 3057 3052 3047 3042 3037 3033 3030 3025 3021 3018 3013 3010 3007 3005 3003 3001 3000 2998 2998 2998
3090 3089 3088 3088 3087 3086 3085 3083 3080 3078 3075 3072 3067 3064 3059 3055 3053 3049 3043 3039 3036 3031 3027 3022 3019 3015 3010 3006 3001 2997 2994 2991 2987 2985 2984 2982 2981 2981
3084 3084 3082 3081 3080 3079 3077 3075 3073 3070 3066 3062 3058 3053 3049 3043 3038 3035 3031 3029 3025 3022 3018 3014 3010 3004 3000 2993 2989 2985 2980 2977 2973 2970 2967 2967 2966 2965
3079 3077 3076 3074 3073 3072 3070 3067 3064 3060 3057 3052 3048 3043 3038 3033 3028 3023 3020 3016 3015 3012 3005 3005 3002 2995 2990 2984 2979 2972 2967 2962 2959 2955 2953 2952 2951 2949
3071 3070 3069 3067 3066 3064 3062 3059 3056 3051 3047 3042 3037 3033 3028 3024 3019 3015 3011 3008 3005 3002 2993 2992 2987 2981 2979 2976 2970 2963 2958 2953 2947 2944 2940 2937 2935 2935
3064 3062 3060 3060 3058 3055 3052 3049 3045 3041 3036 3032 3027 3024 3020 3016 3012 3008 3005 3000 2996 2991 2984 2983 2977 2971 2968 2964 2960 2956 2951 2945 2940 2934 2930 2926 2924 2922
3057 3055 3053 3051 3049 3046 3043 3039 3036 3031 3026 3023 3019 3015 3011 3008 3004 2999 2996 2992 2990 2984 2977 2972 2969 2963 2960 2956 2951 2946 2941 2937 2932 2925 2921 2917 2914 2911
3049 3047 3046 3043 3040 3037 3034 3029 3027 3023 3018 3015 3012 3008 3003 3000 2996 2991 2989 2985 2982 2977 2972 2964 2962 2954 2952 2948 2943 2940 2934 2928 2924 2919 2914 2909 2904 2900
3040 3039 3038 3036 3031 3028 3024 3021 3018 3016 3012 3008 3004 3001 2997 2993 2989 2985 2981 2977 2973 2969 2965 2959 2954 2947 2943 2939 2935 2931 2926 2921 2915 2911 2906 2902 2897 2892
3033 3031 3029 3026 3022 3019 3017 3014 3011 3007 3004 3000 2997 2993 2990 2987 2983 2979 2975 2971 2966 2962 2958 2951 2946 2941 2935 2929 2926 2924 2918 2913 2907 2903 2899 2895 2891 2886
3025 3023 3020 3017 3015 3012 3010 3007 3002 2998 2995 2991 2988 2985 2982 2979 2976 2973 2969 2965 2960 2955 2951 2946 2939 2934 2928 2924 2918 2915 2912 2906 2901 2895 2890 2886 2884 2879
3017 3015 3014 3011 3007 3005 3001 2998 2994 2990 2987 2983 2980 2977 2974 2971 2969 2966 2962 2957 2953 2949 2944 2940 2934 2929 2923 2916 2911 2907 2901 2899 2894 2889 2884 2880 2876 2872
3010 3008 3006 3003 3000 2997 2993 2990 2986 2983 2979 2976 2973 2970 2967 2964 2960 2957 2953 2949 2946 2943 2938 2933 2928 2922 2917 2911 2905 2900 2896 2889 2887 2883 2878 2875 2872 2868
3002 3000 2998 2995 2992 2990 2987 2983 2979 2976 2973 2969 2966 2962 2958 2955 2952 2948 2945 2941 2938 2935 2932 2927 2921 2916 2911 2905 2900 2895 2890 2884 2882 2877 2874 2870 2869 2864
2994 2992 2990 2988 2986 2982 2979 2976 2973 2969 2966 2961 2957 2954 2951 2947 2944 2941 2938 2934 2931 2927 2924 2919 2914 2909 2905 2901 2895 2889 2885 2879 2877 2874 2870 2866 2865 2863
2987 2985 2983 2981 2979 2976 2973 2969 2965 2961 2957 2953 2950 2947 2943 2940 2937 2934 2931 2927 2924 2921 2917 2913 2908 2902 2896 2893 2891 2885 2878 2875 2872 2870 2867 2864 2862 2860
2981 2979 2977 2975 2972 2968 2965 2961 2957 2954 2950 2946 2943 2940 2937 2934 2931 2928 2924 2920 2917 2913 2910 2907 2902 2897 2891 2886 2882 2882 2875 2870 2868 2866 2863 2861 2860 2858
2975 2973 2971 2968 2964 2960 2957 2954 2950 2946 2943 2939 2937 2934 2931 2928 2925 2921 2918 2915 2911 2907 2903 2900 2896 2891 2887 2882 2878 2875 2872 2868 2866 2863 2861 2858 2857 2856
2969 2966 2963 2960 2957 2954 2951 2947 2944 2940 2936 2933 2931 2928 2925 2922 2919 2915 2912 2909 2905 2901 2897 2894 2890 2886 2881 2877 2873 2869 2867 2865 2862 2861 2859 2857 2854 2853
2960 2959 2957 2954 2950 2947 2943 2940 2936 2933 2930 2927 2925 2922 2919 2916 2913 2910 2907 2903 2899 2895 2891 2887 2884 2880 2876 2872 2868 2865 2862 2860 2858 2856 2856 2854 2852 2851